Location: *
(45.9500°N, 9.0833°E)
Time: 20:50:01
(UTC+00:00)

COSMO-SKYMED 1 - Pass Details

Date: 03 March 2021
Orbit: 621 x 623 km, 97.9° (Epoch: 20 April)

Event Time Altitude Azimuth Distance (km) Brightness Sun altitude
Rises 17:44:00 0° 11° (N) 2,917 5.9 -6.2°
Reaches altitude 10° 17:46:12 10° 10° (N) 2,005 5.1 -6.5°
Maximum altitude 17:50:33 74° 285° (WNW) 652 2.9 -7.3°
Drops below altitude 10° 17:54:52 10° 201° (SSW) 1,988 5.5 -8.1°
Sets 17:57:03 0° 200° (SSW) 2,889 6.3 -8.4°
